Regional Weather Roundup
Issued by NWS

Home | Current Version | Previous Version | Text Only | Print | Product List | Glossary Off
Versions: 1 2 3 4 5 6 7 8 9 10 11 12 13 14 15 16 17 18 19 20 21 22 23 24 25 26 27 28 29 30 31 32 33 34 35 36 37 38 39 40 41 42 43 44 45 46 47 48 49 50

000
ASUS45 KTFX 150810
RWRMT
MONTANA REGIONAL WEATHER ROUNDUP
NATIONAL WEATHER SERVICE GREAT FALLS MT
100 AM MST FRI DEC 15 2017

NOTE: "FAIR" INDICATES FEW OR NO CLOUDS BELOW 12000 FEET WITH NO
SIGNIFICANT WEATHER AND/OR OBSTRUCTIONS TO VISIBILITY.

MTZ001>007-043-150900-
WEST OF THE DIVIDE

CITY           SKY/WX    TMP DP  RH WIND       PRES   REMARKS
KALISPELL      CLOUDY    28  26  92 CALM      30.27F
MISSOULA       CLOUDY    25  24  96 CALM      30.28F FOG
BUTTE          FAIR       7   3  84 SE5       30.20F
MULLAN PASS    FAIR      27  22  81 SW12G18   30.15F WCI  17
ANACONDA         N/A     16  12  86 CALM      30.18F
DEER LODGE       N/A     16  14  93 CALM      30.23F VSB 0
EUREKA           N/A     25  21  86 MISG      30.27F
HAMILTON         N/A     18  14  86 CALM      30.25F
LIBBY            N/A     28  25  86 CALM      30.26F
RONAN            N/A     27  23  84 CALM      30.28F
$$

MTZ008-052>055-150900-
SOUTHWEST MONTANA

CITY           SKY/WX    TMP DP  RH WIND       PRES   REMARKS
BOZEMAN        FOG        6   4  91 S3        30.20F VSB 1/4
DILLON         FAIR      20  13  74 SW7       30.21F WCI  11
W YELLOWSTONE  CLOUDY     7   5  92 CALM      30.31S
ENNIS          CLOUDY    27  18  69 S20G25    30.24F WCI  13
THREE FORKS      N/A      7   3  83 CALM      30.17F VSB 0
TWIN BRIDGES     N/A     13   6  73 CALM      30.18F
$$

MTZ009-010-012-014-046-048-049-054-150900-
EAST SLOPES AND CENTRAL MONTANA

CITY           SKY/WX    TMP DP  RH WIND       PRES   REMARKS
CUT BANK       FAIR      40  17  39 SW25      29.88F
GREAT FALLS    FAIR      38  17  42 SW21      29.96F WCI  28
MALMSTROM AFB  FAIR      36  19  50 SW18      29.95F WCI  26
HELENA         FOG       19  18  95 NW5       30.19F VSB 3/4
BOWMANS CRNR   FAIR      30  20  65 S24       29.98F WCI  16
CHOTEAU          N/A     41  10  28 W7        29.95F
FAIRFIELD      FAIR      35  17  48 SW20      29.95F WCI  24
POWER          FAIR      35  17  49 SW14      29.94F WCI  25
RAYNESFORD     FAIR      43  14  30 SW22      29.96F
ULM            FAIR      34  19  53 SW12      29.98F WCI  26
$$

MTZ011-013-016-021-045-047-050-051-150900-
NORTH CENTRAL MONTANA

CITY           SKY/WX    TMP DP  RH WIND       PRES   REMARKS
HAVRE          FAIR      38  21  50 SW26G32   29.88F WCI  26
LEWISTOWN      FAIR      31  19  61 CALM      29.95F
N BAR RANCH    FAIR      45  12  26 NW17      29.94F
CHINOOK          N/A     19  18  93 CALM      29.87F
DENTON         MOCLDY    42  15  33 MISG      29.89F
GEYSER         FAIR      38  15  40 W20       29.93F WCI  28
GRASS RANGE    FAIR      38  18  43 W15       29.88F WCI  29
STANFORD       FAIR      39  13  35 W13       29.93F WCI  31
WINIFRED       FAIR      38  18  44 W13       29.91F WCI  30
$$

MTZ017>020-022>027-061-062-150900-
NORTHEAST MONTANA

CITY           SKY/WX    TMP DP  RH WIND       PRES   REMARKS
GLASGOW        FAIR      27  23  85 SE7       29.85F WCI  19
GLENDIVE       FAIR      28  23  81 S9        29.92F WCI  19
JORDAN           N/A     23  18  81 W5        29.90F
SIDNEY         FAIR      25  22  88 S5        29.91F
WOLF POINT     FAIR      26  22  84 CALM      29.89F
MALTA          CLEAR     19  16  86 W5        29.86F
PLENTYWOOD       N/A     25  23  93 CALM      29.85F
POPLAR           N/A     25  21  86 CALM      29.88F
SCOBEY           N/A     27  17  65 CALM      29.82F
$$

MTZ028>42-056>058-150900-
SOUTHCENTRAL AND SOUTHEAST MONTANA

CITY           SKY/WX    TMP DP  RH WIND       PRES   REMARKS
BAKER          FAIR      28  23  81 VRB5      29.94F
BILLINGS       FAIR      36  19  50 SW18      30.01F WCI  26
LIVINGSTON     FAIR      37  20  50 W28G44    30.10F WCI  25
MILES CITY     FAIR      22  20  92 S5        29.95F
BIG TIMBER     CLEAR     41  14  33 W37G47    30.03S
EKALAKA          N/A     30  18  61 S7        29.91F WCI  23
FORSYTH          N/A     27  21  80 CALM      29.95F
LAUREL           N/A     34  18  51 W10       30.03F WCI  26
$$

REGIONAL REPORTS...DAKOTAS

CITY           SKY/WX    TMP DP  RH WIND       PRES   REMARKS
WILLISTON      FAIR      27  21  78 SW7       29.89F WCI  19
MINOT          MOCLDY    30  22  72 SW7       29.88F WCI  23
DICKINSON      FAIR      26  21  81 W7        29.90F WCI  18
BEACH          FAIR      27  23  86 SW12      29.94F WCI  16
CROSBY         FAIR      25  25 100 SW8       29.87F WCI  16
TIOGA          FAIR      25  25 100 W7        29.88F WCI  17
WATFORD CITY   FAIR      27  25  93 SW7       29.90F WCI  19
BISMARCK       CLOUDY    32  24  72 NW3       29.95F
GRAND FORKS    CLOUDY    19  15  84 N7        29.96F WCI  10
FARGO          CLOUDY    20  17  88 N3        29.96F
BUFFALO SD       N/A     21  17  84 W5        29.88F
RAPID CITY     FAIR      16  10  77 CALM      30.01F
$$

REGIONAL REPORTS...WYOMING/IDAHO/WASHINGTON

CITY           SKY/WX    TMP DP  RH WIND       PRES   REMARKS
GILLETTE       FAIR      29  16  58 SW14      30.02F WCI  18
SHERIDAN       FAIR      19  14  81 CALM      30.01F
BUFFALO WY     FAIR      34   1  24 CALM      30.02F
CODY           FAIR      20  15  81 NE3       30.07F
YELLOWSTONE LA   N/A      4   1  88 W3        30.30F
IDAHO FALLS    FOG       18  17  96 N8        30.40S VSB 1/2 WCI   8
SALMON         CLOUDY    31  24  75 S14       30.38F WCI  21
BOISE          CLOUDY    26  23  88 SE6       30.44F WCI  19
SPOKANE        FRZ DRZL  29  28  96 CALM      30.30F
$$

REGIONAL REPORTS...ALBERTA

CITY           SKY/WX    TMP DP  RH WIND       PRES   REMARKS
EDMONTON       PTCLDY    36  23  60 W5        29.70F
CALGARY        MOCLDY    36  14  41 S6        29.76F WCI  31
LETHBRIDGE     CLEAR     43  16  33 W20G26    29.81F
MEDICINE HAT   CLEAR     36  21  55 SW12      29.81F WCI  27
$$

REGIONAL REPORTS...SASKATCHEWAN

CITY           SKY/WX    TMP DP  RH WIND       PRES   REMARKS
SWIFT CURRENT  CLOUDY    32  23  69 SW20      29.74F WCI  20
REGINA         CLOUDY    27  25  93 S7        29.78F WCI  19
SASKATOON      CLOUDY    30  27  86 SW9       29.71F WCI  22
$$



USA.gov is the U.S. government's official web portal to all federal, state and local government web resources and services.